When you browse on this site, cookies collect data to enhance your experience and personalize the content and advertising you see.
Visit our Privacy Policy to learn more. By continuing to use the site, you agree to this use of cookies and data.
  • In Austria
  • List of Countries
  • For 7 days
  • Water Temperature
  • Satellite Maps
  • Weather Map
  • News
  • Weather Widgets
  • user-avatar
    Login

    Hourly Weather Pleven

    Today, 10 December, Monday

    Time Temperature Precipitation Wind Pressure Humidity
    00:00 +4°C° 0 mm 1 mps 739 mmHg 75%
    01:00 +4°C° 0 mm 1 mps 739 mmHg 75%
    02:00 +4°C° 0 mm 1 mps 739 mmHg 75%
    03:00 +4°C° 0 mm 1 mps 738 mmHg 75%
    04:00 +4°C° 0 mm 1 mps 738 mmHg 75%
    05:00 +3°C° 0 mm 1 mps 738 mmHg 76%
    06:00 +4°C° 0 mm 1 mps 738 mmHg 75%
    07:00 +4°C° 0 mm 1 mps 738 mmHg 75%
    08:00 +4°C° 0 mm 1 mps 738 mmHg 75%
    09:00 +4°C° 0.1 mm 2 mps 739 mmHg 74%
    10:00 +5°C° 0.1 mm 2 mps 739 mmHg 73%
    11:00 +6°C° 0.1 mm 2 mps 739 mmHg 72%
    12:00 +5°C° 0.1 mm 3 mps 739 mmHg 72%
    13:00 +7°C° 0.1 mm 3 mps 739 mmHg 73%
    14:00 +7°C° 0.1 mm 3 mps 739 mmHg 73%
    15:00 +5°C° 0 mm 3 mps 739 mmHg 76%
    16:00 +5°C° 0 mm 3 mps 739 mmHg 79%
    17:00 +4°C° 0 mm 3 mps 739 mmHg 81%
    18:00 +4°C° 0 mm 4 mps 739 mmHg 80%
    19:00 +3°C° 0 mm 5 mps 739 mmHg 79%
    20:00 +2°C° 0 mm 5 mps 740 mmHg 78%
    21:00 +2°C° 0 mm 5 mps 740 mmHg 77%
    22:00 +2°C° 0 mm 5 mps 740 mmHg 76%
    23:00 +1°C° 0 mm 5 mps 740 mmHg 75%

    Tomorrow, 11 December, Tuesday

    Time Temperature Precipitation Wind Pressure Humidity
    00:00 +1°C° 0 mm 5 mps 741 mmHg 76%
    01:00 +1°C° 0 mm 5 mps 741 mmHg 76%
    02:00 0°C° 0 mm 5 mps 741 mmHg 77%
    03:00 0°C° 0 mm 5 mps 741 mmHg 77%
    04:00 0°C° 0 mm 5 mps 741 mmHg 77%
    05:00 0°C° 0 mm 4 mps 741 mmHg 78%
    06:00 -1°C° 0 mm 4 mps 742 mmHg 78%
    07:00 -1°C° 0 mm 4 mps 742 mmHg 77%
    08:00 -1°C° 0 mm 4 mps 742 mmHg 77%
    09:00 0°C° 0 mm 5 mps 743 mmHg 71%
    10:00 +1°C° 0 mm 5 mps 743 mmHg 64%
    11:00 +2°C° 0 mm 6 mps 744 mmHg 58%
    12:00 +3°C° 0 mm 6 mps 743 mmHg 56%
    13:00 +3°C° 0 mm 6 mps 743 mmHg 54%
    14:00 +3°C° 0 mm 6 mps 743 mmHg 53%
    15:00 +3°C° 0 mm 5 mps 744 mmHg 57%
    16:00 +2°C° 0 mm 5 mps 744 mmHg 61%
    17:00 +1°C° 0 mm 4 mps 744 mmHg 64%
    18:00 0°C° 0 mm 4 mps 745 mmHg 67%
    19:00 0°C° 0 mm 4 mps 745 mmHg 69%
    20:00 -1°C° 0 mm 4 mps 745 mmHg 71%
    21:00 -1°C° 0 mm 4 mps 745 mmHg 71%
    22:00 0°C° 0 mm 3 mps 746 mmHg 72%
    23:00 0°C° 0 mm 3 mps 746 mmHg 72%

    Day after tomorrow, 12 December, Wednesday

    Time Temperature Precipitation Wind Pressure Humidity
    00:00 0°C° 0 mm 3 mps 746 mmHg 72%
    01:00 0°C° 0 mm 3 mps 746 mmHg 73%
    02:00 -1°C° 0 mm 3 mps 746 mmHg 73%
    03:00 -1°C° 0 mm 3 mps 746 mmHg 73%
    04:00 -1°C° 0 mm 3 mps 746 mmHg 73%
    05:00 -1°C° 0 mm 3 mps 746 mmHg 73%
    06:00 -1°C° 0 mm 3 mps 746 mmHg 73%
    07:00 -1°C° 0 mm 3 mps 747 mmHg 73%
    08:00 -1°C° 0 mm 3 mps 747 mmHg 73%
    09:00 +1°C° 0 mm 3 mps 747 mmHg 67%
    10:00 +1°C° 0 mm 4 mps 747 mmHg 60%
    11:00 +4°C° 0 mm 4 mps 747 mmHg 53%
    12:00 +4°C° 0 mm 4 mps 747 mmHg 51%
    13:00 +5°C° 0 mm 4 mps 747 mmHg 49%
    14:00 +5°C° 0 mm 4 mps 746 mmHg 47%
    15:00 +4°C° 0 mm 3 mps 746 mmHg 52%
    16:00 +3°C° 0 mm 3 mps 747 mmHg 57%
    17:00 +3°C° 0 mm 2 mps 747 mmHg 62%
    18:00 +2°C° 0 mm 2 mps 747 mmHg 64%
    19:00 +1°C° 0 mm 3 mps 747 mmHg 66%
    20:00 0°C° 0 mm 3 mps 747 mmHg 67%
    21:00 0°C° 0 mm 3 mps 747 mmHg 67%
    22:00 0°C° 0 mm 3 mps 748 mmHg 66%
    23:00 0°C° 0 mm 3 mps 748 mmHg 66%

    13 December, Thursday

    Time Temperature Precipitation Wind Pressure Humidity
    00:00 0°C° 0 mm 3 mps 748 mmHg 66%
    01:00 0°C° 0 mm 3 mps 748 mmHg 66%
    02:00 0°C° 0 mm 3 mps 748 mmHg 66%
    03:00 -1°C° 0 mm 3 mps 748 mmHg 65%
    04:00 -1°C° 0 mm 2 mps 747 mmHg 64%
    05:00 -1°C° 0 mm 2 mps 747 mmHg 64%
    06:00 -1°C° 0 mm 2 mps 747 mmHg 62%
    07:00 -1°C° 0 mm 2 mps 748 mmHg 61%
    08:00 -1°C° 0 mm 2 mps 748 mmHg 60%
    09:00 +2°C° 0 mm 2 mps 748 mmHg 54%
    10:00 +3°C° 0 mm 3 mps 748 mmHg 48%
    11:00 +4°C° 0 mm 3 mps 747 mmHg 42%
    12:00 +5°C° 0 mm 3 mps 747 mmHg 40%
    13:00 +6°C° 0 mm 2 mps 747 mmHg 38%
    14:00 +7°C° 0 mm 2 mps 746 mmHg 37%
    15:00 +6°C° 0 mm 2 mps 746 mmHg 41%
    16:00 +5°C° 0 mm 1 mps 746 mmHg 46%
    17:00 +4°C° 0 mm 1 mps 746 mmHg 51%
    18:00 +4°C° 0 mm 1 mps 746 mmHg 52%
    19:00 +3°C° 0 mm 1 mps 746 mmHg 53%
    20:00 +3°C° 0 mm 1 mps 746 mmHg 54%
    21:00 +3°C° 0 mm 1 mps 746 mmHg 54%
    22:00 +3°C° 0 mm 1 mps 746 mmHg 55%
    23:00 +3°C° 0 mm 1 mps 747 mmHg 55%

    14 December, Friday

    Time Temperature Precipitation Wind Pressure Humidity
    00:00 +3°C° 0 mm 1 mps 746 mmHg 55%
    01:00 +2°C° 0 mm 1 mps 746 mmHg 56%
    02:00 +2°C° 0 mm 1 mps 746 mmHg 56%
    03:00 +2°C° 0 mm 1 mps 746 mmHg 57%
    04:00 +2°C° 0 mm 1 mps 746 mmHg 57%
    05:00 +2°C° 0 mm 1 mps 746 mmHg 58%
    06:00 +1°C° 0 mm 2 mps 746 mmHg 58%
    07:00 +1°C° 0 mm 2 mps 746 mmHg 59%
    08:00 +1°C° 0 mm 2 mps 746 mmHg 60%
    09:00 +3°C° 0 mm 2 mps 746 mmHg 57%
    10:00 +4°C° 0 mm 2 mps 745 mmHg 54%
    11:00 +5°C° 0 mm 2 mps 745 mmHg 52%
    12:00 +5°C° 0.1 mm 2 mps 745 mmHg 53%
    13:00 +6°C° 0.1 mm 2 mps 744 mmHg 55%
    14:00 +6°C° 0.1 mm 2 mps 744 mmHg 57%
    15:00 +5°C° 0 mm 2 mps 744 mmHg 63%
    16:00 +4°C° 0 mm 2 mps 744 mmHg 69%
    17:00 +3°C° 0 mm 2 mps 744 mmHg 76%
    18:00 +3°C° 0.1 mm 2 mps 743 mmHg 79%
    19:00 +3°C° 0.1 mm 2 mps 743 mmHg 82%
    20:00 +4°C° 0.1 mm 1 mps 743 mmHg 86%
    21:00 +4°C° 0.4 mm 1 mps 743 mmHg 88%
    22:00 +3°C° 0.4 mm 1 mps 743 mmHg 90%
    23:00 +3°C° 0.4 mm 1 mps 742 mmHg 93%

    15 December, Saturday

    Time Temperature Precipitation Wind Pressure Humidity
    00:00 +3°C° 0.3 mm 1 mps 742 mmHg 94%
    01:00 +3°C° 0.3 mm 1 mps 742 mmHg 94%
    02:00 +3°C° 0.3 mm 1 mps 741 mmHg 95%
    03:00 +3°C° 0.3 mm 1 mps 741 mmHg 95%
    04:00 +3°C° 0.3 mm 1 mps 741 mmHg 95%
    05:00 +3°C° 0.3 mm 1 mps 740 mmHg 96%
    06:00 +3°C° 0.2 mm 1 mps 741 mmHg 95%
    07:00 +3°C° 0.2 mm 1 mps 741 mmHg 95%
    08:00 +3°C° 0.2 mm 1 mps 741 mmHg 95%
    09:00 +3°C° 0.4 mm 1 mps 741 mmHg 94%
    10:00 +2°C° 0.4 mm 2 mps 741 mmHg 93%
    11:00 +3°C° 0.4 mm 2 mps 741 mmHg 92%
    12:00 +3°C° 1.3 mm 2 mps 741 mmHg 93%
    13:00 +3°C° 1.3 mm 2 mps 741 mmHg 93%
    14:00 +2°C° 1.3 mm 2 mps 741 mmHg 94%
    15:00 +2°C° 0.6 mm 2 mps 741 mmHg 94%
    16:00 +2°C° 0.6 mm 2 mps 741 mmHg 95%
    17:00 +2°C° 0.6 mm 2 mps 742 mmHg 95%
    18:00 +1°C° 0.5 mm 3 mps 742 mmHg 95%
    19:00 +2°C° 0.5 mm 3 mps 742 mmHg 94%
    20:00 +2°C° 0.5 mm 3 mps 743 mmHg 94%
    21:00 +2°C° 0.1 mm 3 mps 743 mmHg 94%
    22:00 +2°C° 0.1 mm 3 mps 744 mmHg 93%
    23:00 +1°C° 0.1 mm 3 mps 744 mmHg 92%
    Show more